Weather History for Laramie, WY

Change the Weather History Date:

Saturday, June 2, 2012

  Actual Average Record
Temperature  
Mean Temperature 62 °F 53 °F  
Max Temperature 76 °F 67 °F 82 °F (2006)
Min Temperature 47 °F 38 °F 23 °F (1951)
Degree Days  
Heating Degree Days 3 12  
Month to date heating degree days 8 24  
Since 1 June heating degree days 8 24  
Since 1 July heating degree days 8078 8613  
Cooling Degree Days 0 0  
Month to date cooling degree days 0 0  
Year to date cooling degree days 0 0  
Since 1 June cooling degree days 0 0  
Growing Degree Days 10 (Base 50)    
Moisture  
Dew Point 39 °F    
Average Humidity 53    
Maximum Humidity 83    
Minimum Humidity 23    
Precipitation  
Precipitation T in 0.07 in 0.30 in (1997)
Month to date precipitation 0.01 0.13  
Year to date precipitation 2.37 4.08  
Sea Level Pressure  
Sea Level Pressure 29.81 in    
Wind  
Wind Speed 10 mph (SSW)    
Max Wind Speed 32 mph    
Max Gust Speed 41 mph    
Visibility 10 miles    
Events Rain , Thunderstorm    
T = Trace of Precipitation, MM = Missing Value Source: NWS Daily Summary

Daily Weather History Graph

Daily Weather History Graph

Search for Another Location

Airport:

Trip Planner

Search our weather history database for the weather conditions in past years. The results will help you decide how hot, cold, wet, or windy it might be!

Date:

Astronomy

Jun. 02, 2012 Rise Set
Actual Time 5:31 AM MDT 8:30 PM MDT
Civil Twilight 4:58 AM MDT 9:04 PM MDT
Nautical Twilight 4:15 AM MDT 9:46 PM MDT
Astronomical Twilight 3:26 AM MDT 10:35 PM MDT
Moon 6:48 PM MDT (6/2) 3:52 AM MDT (6/2)
Length of Visible Light 16h 06m
Length of Day
14h 59m
Waxing Gibbous, 96% of the Moon is Illuminated
Jun 2
Waxing Gibbous
Jun 4
Full
Jun 11
Last Quarter
Jun 19
New
Jun 26
First Quarter

Hourly Weather History & Observations

Time (MDT) Temp. Dew Point Humidity Pressure Visibility Wind Dir Wind Speed Gust Speed Precip Events Conditions
12:53 AM 52.0 °F 41.0 °F 66% 29.79 in 10.0 mi SSE 16.1 mph - N/A   Clear
1:53 AM 50.0 °F 39.9 °F 68% 29.78 in 10.0 mi SSE 12.7 mph - N/A   Clear
2:53 AM 48.0 °F 39.9 °F 74% 29.76 in 10.0 mi SSE 13.8 mph - N/A   Clear
3:53 AM 48.0 °F 39.0 °F 71% 29.76 in 10.0 mi SSE 11.5 mph - N/A   Clear
4:53 AM 46.9 °F 39.0 °F 74% 29.77 in 10.0 mi South 13.8 mph - N/A   Clear
5:53 AM 48.9 °F 39.0 °F 69% 29.78 in 10.0 mi SSE 15.0 mph - N/A   Clear
6:53 AM 51.1 °F 41.0 °F 68% 29.79 in 10.0 mi South 9.2 mph - N/A   Clear
7:53 AM 57.9 °F 39.9 °F 51% 29.80 in 10.0 mi South 6.9 mph - N/A   Clear
8:53 AM 64.0 °F 36.0 °F 35% 29.80 in 10.0 mi SSW 4.6 mph - N/A   Clear
9:53 AM 69.1 °F 35.1 °F 29% 29.76 in 10.0 mi Calm Calm - N/A   Clear
10:53 AM 72.0 °F 34.0 °F 25% 29.75 in 10.0 mi Calm Calm - N/A   Clear
11:53 AM 75.0 °F 35.1 °F 23% 29.71 in 10.0 mi Variable 4.6 mph - N/A   Clear
12:42 PM 75.2 °F 33.8 °F 22% 30.01 in 10.0 mi NNW 6.9 mph 18.4 mph N/A Thunderstorm Scattered Clouds
12:53 PM 75.0 °F 33.1 °F 22% 29.69 in 10.0 mi NW 13.8 mph 21.9 mph N/A Thunderstorm Mostly Cloudy
1:11 PM 68.0 °F 37.4 °F 33% 30.03 in 10.0 mi WNW 28.8 mph 41.4 mph 0.00 in Rain , Thunderstorm Light Thunderstorms and Rain
1:29 PM 68.0 °F 37.4 °F 33% 30.02 in 10.0 mi South 4.6 mph - 0.00 in Rain Light Rain
1:38 PM 66.2 °F 41.0 °F 40% 30.01 in 10.0 mi Calm Calm - 0.00 in Thunderstorm Mostly Cloudy
1:53 PM 69.1 °F 39.9 °F 35% 29.73 in 10.0 mi WNW 8.1 mph - 0.00 in   Mostly Cloudy
2:53 PM 62.1 °F 41.0 °F 46% 29.80 in 10.0 mi North 8.1 mph 20.7 mph 0.00 in Rain Light Rain
3:53 PM 69.1 °F 37.9 °F 32% 29.73 in 10.0 mi East 9.2 mph - 0.00 in   Clear
4:40 PM 69.8 °F 37.4 °F 31% 30.00 in 10.0 mi SSE 11.5 mph - N/A Thunderstorm Partly Cloudy
4:53 PM 68.0 °F 37.0 °F 32% 29.74 in 10.0 mi SSW 12.7 mph - N/A   Mostly Cloudy
5:35 PM 62.6 °F 41.0 °F 45% 30.04 in 10.0 mi West 20.7 mph 38.0 mph 0.00 in   Overcast
5:53 PM 59.0 °F 45.0 °F 60% 29.80 in 10.0 mi SW 11.5 mph - 0.00 in Rain Light Rain
6:53 PM 57.0 °F 46.9 °F 69% 29.78 in 10.0 mi South 16.1 mph 21.9 mph 0.00 in   Overcast
7:53 PM 55.9 °F 45.0 °F 67% 29.75 in 10.0 mi SSW 10.4 mph - N/A   Clear
8:53 PM 52.0 °F 46.0 °F 80% 29.71 in 10.0 mi West 11.5 mph - N/A   Clear
9:53 PM 57.0 °F 42.1 °F 57% 29.71 in 10.0 mi SW 17.3 mph - N/A   Clear
10:53 PM 54.0 °F 42.1 °F 64% 29.71 in 10.0 mi SSW 11.5 mph - N/A   Clear
11:53 PM 54.0 °F 41.0 °F 62% 29.73 in 10.0 mi NNE 8.1 mph - N/A   Partly Cloudy